Air Quality Table

TIMESTAMP NO2 SO2 O3 PM10 PM2.5 CO TEMP HUM WS WD NO
2021-08-02 15:00 0.69 ug/m3 0.99 ug/m3 123.83 ug/m3 20.63 ug/m3 8.24 ug/m3 0.16 mg/m3 29.46 C 72.78 % 3.09 m/s 261.6 Deg 0.05 ug/m3
2021-08-02 14:00 0.98 ug/m3 0.93 ug/m3 122.63 ug/m3 24.76 ug/m3 8.63 ug/m3 0.15 mg/m3 29.02 C 78.7 % 3.83 m/s 264.53 Deg 0.09 ug/m3
2021-08-02 13:00 1.76 ug/m3 1.12 ug/m3 119.53 ug/m3 26.67 ug/m3 9.45 ug/m3 0.23 mg/m3 29.43 C 75.73 % 3.16 m/s 238.84 Deg 0.18 ug/m3
2021-08-02 12:00 2.33 ug/m3 1.26 ug/m3 118.97 ug/m3 28.29 ug/m3 11.86 ug/m3 0.18 mg/m3 30.48 C 67.16 % 2.46 m/s 233.3 Deg 0.21 ug/m3
2021-08-02 11:00 2.47 ug/m3 1.46 ug/m3 116.97 ug/m3 30.68 ug/m3 10.92 ug/m3 0.19 mg/m3 30.45 C 62.73 % 2.1 m/s 249.27 Deg 0.2 ug/m3
2021-08-02 10:00 2.83 ug/m3 1.36 ug/m3 111.64 ug/m3 28.97 ug/m3 11.92 ug/m3 0.18 mg/m3 30.86 C 57.66 % 2.5 m/s 245.28 Deg 0.23 ug/m3
2021-08-02 09:00 6.62 ug/m3 1.06 ug/m3 96.3 ug/m3 25.56 ug/m3 9.06 ug/m3 0.2 mg/m3 30.05 C 65.83 % 1.77 m/s 183.72 Deg 0.94 ug/m3
2021-08-02 08:00 8.94 ug/m3 0.02 ug/m3 77.1 ug/m3 19.47 ug/m3 6.66 ug/m3 0.18 mg/m3 27.84 C 84.86 % 1.9 m/s 289.24 Deg 1.39 ug/m3
2021-08-02 07:00 5.56 ug/m3 0.05 ug/m3 71.54 ug/m3 18.78 ug/m3 6.87 ug/m3 0.16 mg/m3 26.79 C 94.04 % 1.82 m/s 322.92 Deg 0.35 ug/m3
2021-08-02 06:00 4.16 ug/m3 0.08 ug/m3 84.69 ug/m3 26.74 ug/m3 8.56 ug/m3 0.15 mg/m3 26.62 C 93.26 % 2.96 m/s 274.42 Deg 0.05 ug/m3
2021-08-02 05:00 2.48 ug/m3 0.3 ug/m3 102.95 ug/m3 29.27 ug/m3 7.93 ug/m3 0.16 mg/m3 28.01 C 80.12 % 2.35 m/s 232.6 Deg -0.01 ug/m3
2021-08-02 04:00 2.65 ug/m3 1.68 ug/m3 112.49 ug/m3 30.04 ug/m3 9.42 ug/m3 0.15 mg/m3 30.38 C 47.69 % 1.83 m/s 78.18 Deg -0.01 ug/m3
2021-08-02 03:00 4.52 ug/m3 0.61 ug/m3 105.27 ug/m3 30.39 ug/m3 9.55 ug/m3 0.15 mg/m3 28.08 C 68.47 % 3.52 m/s 11.62 Deg -0.01 ug/m3
2021-08-02 02:00 2.81 ug/m3 0.85 ug/m3 109.59 ug/m3 29.27 ug/m3 9.49 ug/m3 0.13 mg/m3 29.49 C 52.16 % 3.63 m/s 17.53 Deg -0.02 ug/m3
2021-08-02 01:00 4.76 ug/m3 0.73 ug/m3 103.78 ug/m3 29.15 ug/m3 9.81 ug/m3 0.15 mg/m3 28.39 C 64.68 % 2.78 m/s 28.3 Deg 0 ug/m3
2021-08-02 00:00 6.83 ug/m3 0.42 ug/m3 95.86 ug/m3 28.24 ug/m3 9.45 ug/m3 0.16 mg/m3 27.72 C 75.38 % 3.48 m/s 20.45 Deg 0 ug/m3
2021-08-01 23:00 5.32 ug/m3 0.1 ug/m3 75.51 ug/m3 27.12 ug/m3 8.95 ug/m3 0.16 mg/m3 27.05 C 89.28 % 2.69 m/s 34.71 Deg 0.01 ug/m3
2021-08-01 22:00 1.08 ug/m3 0.16 ug/m3 74.96 ug/m3 29.29 ug/m3 8.75 ug/m3 0.16 mg/m3 27.87 C 87 % 2.41 m/s 31.65 Deg 0 ug/m3
2021-08-01 21:00 1.97 ug/m3 0.44 ug/m3 86.04 ug/m3 26.9 ug/m3 8.83 ug/m3 0.15 mg/m3 29.23 C 64.27 % 2.24 m/s 22.43 Deg -0.02 ug/m3
2021-08-01 20:00 2.43 ug/m3 0.96 ug/m3 94.33 ug/m3 26.64 ug/m3 8.27 ug/m3 0.14 mg/m3 30.21 C 47.17 % 1.65 m/s 169.17 Deg -0.02 ug/m3
2021-08-01 19:00 5.2 ug/m3 1.23 ug/m3 95.24 ug/m3 27.11 ug/m3 9.2 ug/m3 0.14 mg/m3 31.36 C 39.9 % 1.78 m/s 300.99 Deg -0.02 ug/m3
2021-08-01 18:00 2.52 ug/m3 1.23 ug/m3 100.55 ug/m3 28.03 ug/m3 9.22 ug/m3 0.14 mg/m3 32.28 C 37.29 % 2.05 m/s 233.52 Deg 0 ug/m3
2021-08-01 17:00 2.52 ug/m3 1.4 ug/m3 94.8 ug/m3 30.52 ug/m3 8.61 ug/m3 0.15 mg/m3 31.28 C 48.1 % 4.03 m/s 224.18 Deg 0.09 ug/m3

It is to be noted that the data is provisional and subject to quality assurance procedures. For validated data kindly refer your request to contact.air@era.org.mt